LogoCoinalyze
    Ad-Free Version Hauptseite Märkte Finanzierungsraten
    Futures-Daten
    • Aggregierte Daten (Coins)
    • Einzelne Charts
    • Globale Charts
    Preisalarme
    TA
    Bitcoin Ethereum BNB Ripple Tron ZCash Dogecoin Monero UNUS SED LEO Chainlink Cardano Stellar Lumens Bitcoin Cash Litecoin Hedera Cronos Polkadot Ethereum Classic Algorand Quant Cosmos VeChain Dash Bitcoin SV BitTorrent Terra Decred Tezos Iota The Graph THETA Decentraland NEO Chiliz MultiversX Golem Basic Attention Token Horizen Qtum 0x DigiByte Beam FTX Token RIF Token Holo FUNToken Zilliqa Ontology aelf Nano Enjin Coin Ravencoin Siacoin Mask Network Verge Status WINk Waves IoTeX iExec RLC Power Ledger Steem Kyber Network Crystal Lisk Ark Ardor WOO Network IOST WAX Icon Storj Wanchain Loopring Bitcoin Diamond AdEx Bitcoin Gold Augur OmiseGO NEM MonaCoin BitShares Ren Komodo V Systems Nuls Mithril SOLVE Maker EOS Aion Nebulas HedgeTrade Bread Fetch.ai TomoChain Polygon Fantom Waltonchain GXChain Bytom Metaverse ETP MaidSafeCoin QASH
    Bestellen nach:
    Mehr
    • API
    • Kerzenformationen
    • Spenden
    • Kontakt
    • Sitemap
    • Privacy Policy
    • Disclaimer
    • Theme:
    Deutsch
    • English
    • Français
    • Русский
    • Türkçe
    • Nederlands
    • Português (BR)
    • Español
    • 한국어
    • 简体中文
    • 日本語
     
    Anmelden / Registrieren
    Markets/ Pepe/ PEPE zu USD/ PEPEUSD Kraken
    Trades
    WL
    Chat
    Stat
    Neuigkeiten
    ⦷
    AAA
    0.000003432 110765700.00000000 09:03:22
    0.000003432 39234300.00000000 09:03:22
    0.000003428 1647038.22000000 09:02:15
    0.000003426 533988.00000000 09:00:55
    0.000003424 1410914.00000000 09:00:37
    0.000003418 2395584.00000000 08:59:57
    0.000003417 330406.78000000 08:58:45
    0.000003415 354562.00000000 08:58:04
    0.000003420 382789.00000000 08:56:33
    0.000003417 774751.00000000 08:54:30
    0.000003419 34664758.44000000 08:53:59
    0.000003420 39234300.00000000 08:53:28
    0.000003416 3067769.32000000 08:52:52
    0.000003416 8369320.11142000 08:52:45
    0.000003414 39234300.00000000 08:52:43
    0.000003415 1650000.00000000 08:52:43
    0.000003415 1376434.00000000 08:52:43
    0.000003415 623566.00000000 08:52:42
    0.000003416 18946235.47356000 08:52:39
    0.000003416 3508492.00000000 08:52:36
    0.000003417 38462883.88000001 08:51:43
    0.000003417 39234300.00000000 08:51:43
    0.000003421 1634395.09000000 08:51:17
    0.000003418 4441387.71000000 08:50:12
    0.000003418 584026.00000000 08:50:06
    0.000003418 39234300.00000000 08:49:58
    0.000003423 169319336.26820001 08:48:28
    0.000003420 87106582.02418000 08:48:12
    0.000003420 39234300.00000000 08:48:12
    0.000003420 3343736.89473000 08:48:12
    0.000003421 39234300.00000000 08:48:12
    0.000003429 129741705.40723000 08:46:18
    0.000003429 39234300.00000000 08:46:18
    0.000003428 129855994.21710999 08:46:10
    0.000003428 39234300.00000000 08:46:10
    0.000003425 729928.00000000 08:44:59
    0.000003426 1500000.00000000 08:44:56
    0.000003426 5032410.45164000 08:44:54
    0.000003426 6701857.00000000 08:43:46
    0.000003429 78197271.04546000 08:43:18
    0.000003429 39234300.00000000 08:43:18
    0.000003428 161586564.61577001 08:43:18
    0.000003428 39234300.00000000 08:43:18
    0.000003428 137981367.18537000 08:43:18
    0.000003428 80808671.75146000 08:43:14
    0.000003428 39234300.00000000 08:43:14
    0.000003424 68490076.41052000 08:42:32
    0.000003424 39234300.00000000 08:42:32
    0.000003425 7638429.06000000 08:42:32
    0.000003426 39234300.00000000 08:42:32
    0.000003430 7638429.06000000 08:42:30
    0.000003433 2000000.00000000 08:42:29
    0.000003436 2908905.70430000 08:41:37
    0.000003436 39234300.00000000 08:41:37
    0.000003442 709937.00000000 08:39:30
    0.000003441 443687.80000000 08:39:03
    0.000003442 544835.00000000 08:38:45
    0.000003444 3446071.44000000 08:38:24
    0.000003445 39234300.00000000 08:37:50
    0.000003444 526925.00000000 08:37:30
    0.000003440 341849.00000000 08:36:52
    0.000003442 39234300.00000000 08:33:54
    0.000003441 574891.00000000 08:33:19
    0.000003441 132557002.68833999 08:32:38
    0.000003441 39234300.00000000 08:32:38
    0.000003444 17489169.57000000 08:31:55
    0.000003442 1736802.30999000 08:31:27
    0.000003442 39234300.00000000 08:31:27
    0.000003441 519662.00000000 08:31:15
    0.000003440 39234300.00000000 08:30:48
    0.000003440 2905523.25581000 08:30:48
    0.000003440 3415783.38953000 08:30:48
    0.000003442 478334.00000000 08:30:42
    0.000003443 65156105.28881000 08:30:38
    0.000003443 39234300.00000000 08:30:38
    0.000003442 1555317.93999000 08:30:38
    0.000003442 39234300.00000000 08:30:38
    0.000003445 1743172.57409000 08:30:10
    0.000003452 1020510.00000000 08:27:33
    0.000003454 765083.96000000 08:27:12
    0.000003454 77739067.84385000 08:27:09
    0.000003454 128761411.81701000 08:27:09
    0.000003454 161586564.61577001 08:27:09
    0.000003454 7309470.02760000 08:27:09
    0.000003454 39234300.00000000 08:27:09
    0.000003453 161586564.61577001 08:27:09
    0.000003453 39234300.00000000 08:27:09
    0.000003452 39234300.00000000 08:27:09
    0.000003451 580332.00000000 08:26:51
    0.000003450 39234300.00000000 08:26:08
    0.000003450 8913987.83880000 08:26:08
    0.000003449 1253793.00000000 08:25:05
    0.000003450 1221652.17000000 08:24:37
    0.000003448 28943560.00000000 08:23:01
    0.000003448 2070550.00000000 08:22:57
    0.000003450 3530840.57000000 08:22:47
    0.000003450 5000000.00000000 08:22:36
    0.000003452 1613010.72000000 08:20:55
    0.000003454 809085.00000000 08:19:09
    0.000003456 30000000.00000000 08:17:09
    Abmelden
    AAA
    Hilfe
    🙂 🤣 😎 🤗 😛 😉 😜 🤑 🤔 😑 😴 😕 🙃 😲 😇 🙁 😢 😬 😟 😠 🕺 🏃 💪 ✌ 👌 👍 👎 👏 👋 🤝 🍺 🍻 🐋 🐟 🦈 🗽 🚄 ✈ 🛑 🚀 🏦 🌚 ⭐ 🌞 ⚡ 🏆 💰 💲 🔨 ❓ ❗ 💯 🔶 🏁
    ☺
    Anmelden oder Registrieren zum Chatten
    24 Stunden
    Veränderung
    -1.10%
    Volumen
    279,484,393,906
    Hoch
    0.000003547
    Tief
    0.000003414
    7 Tage
    Veränderung
    -9.99%
    Volumen
    3,552,735,582,038
    Hoch
    0.000004012
    Tief
    0.000003363
    30 Tage
    Veränderung
    +18.18%
    Volumen
    14,768,393,144,737
    Hoch
    0.000004550
    Tief
    0.000002530
    Pepe price rallies 25% as whale demand and futures interest surge
    Key takeaways Pepe has gained 25% this week, including a combined 22% advance over the previous two days. Seven whale transactions worth more than $1 million each occurred Thursday, the highest...
    coinjournal.net
    Aug 21, 2026 08:41
    PEPE Supply on Exchanges Just Took a Massive Hit – What’s Next?
    A drop in PEPE exchange balances has added to bullish expectations despite muted trader interest.
    cryptopotato.com
    Aug 6, 2026 20:02
    PEPE Exchange Outflows Hit Nearly 2-Year High as Whales Accumulate
    Pepe (PEPE) recorded its largest single-day exchange outflow since November 2024, with 4.54 trillion tokens leaving trading platforms, signaling that holders are moving supply away from immediate...
    beincrypto.com
    Aug 6, 2026 04:57
    Meme Coin Based on White House Shooter Conspiracy Rallies 320%
    $HENRY surged 300% after a 2023 Pepe tweet appeared to name the White House shooter, fueling a viral time-travel meme. The post Meme Coin Based on White House Shooter Conspiracy Rallies 320%...
    beincrypto.com
    Apr 27, 2026 16:11
    PEPE surges 4% as market sentiment improves, eyes Key resistance breakout
    Key takeaways Pepe extends gains on Wednesday, stretching its rally from the 50-day EMA. Derivatives data show heightened retail activity as risk-on sentiment returns to the market. Pepe (PEPE) is...
    coinjournal.net
    Apr 22, 2026 11:44
    Why The PEPE Price Could Stage A 55X Rally To Reach New $0.0001 ATH
    The PEPE price has now started to edge back into bullish conversations after the recent inflows into the crypto market. The last time PEPE’s weekly chart printed the kind of structure now...
    newsbtc.com
    Apr 21, 2026 15:30
    Pepe (PEPE) surges 9%, drawing interest from whales
    Key takeaways PEPE is up 9% in the last 24 hours, making it one of the best performers among the top 50 cryptocurrencies by market cap. The rally comes amid renewed interest from whales and retail...
    coinjournal.net
    Apr 16, 2026 07:40
    Murad Says SPX6900 (SPX) Is Primed for a Rally — Is He Right This Time?
    Crypto influencer Murad Mahmudov claims SPX6900 (SPX) is stabilizing at the same market cap level where Dogecoin (DOGE) and Pepe (PEPE) consolidated before their explosive rallies. The...
    beincrypto.com
    Apr 5, 2026 21:36
    The Shiba Inu Of This Cycle: Analyst Shares Why It Is Better To Buy PEPE Now
    In the bull market cycle of 2021-2022, the Shiba Inu meme coin made waves in a way that changed the face of meme coins forever. This came after Dogecoin’s initial 36,000% rally, and Shiba Inu...
    newsbtc.com
    Apr 4, 2026 07:30
    PEPE Explodes by 18% Amid Altcoin Rally, BTC Tapped $74K: Market Watch
    The frog-themed meme coin is today's biggest gainer, followed by TAO, DOT, and BONK.
    cryptopotato.com
    Mar 16, 2026 10:56
    Should PEPE traders brace for volatility as short squeeze potential builds?
    The memecoin market has seen its collective market capitalization drop by 48% over the past year, and 6.9% over the past month, according to CoinMarketCap. According to Glassnode, the memecoin...
    ambcrypto.com
    Mar 7, 2026 18:00
    Geben Sie einfach das Kommando im Chat ein. Ersetzen Sie dabei nick1 durch den jeweiligen Nick.
    • /ignore nick1 Einen Chat-User ignorieren
    • /unignore nick1 Einen Chat-User nicht mehr ignorieren
    • /ignorelist Ignorierte Chat-User anzeigen